Location: Excel
(51.3833°N, 110.5667°W)
Time: 20:12:48
(UTC+00:00)

Envisat - Pass Details

Date: 04 December 2021
Orbit: 764 x 766 km, 98.2° (Epoch: 26 January)

Event Time Altitude Azimuth Distance (km) Brightness Sun altitude
Rises 00:07:56 0° 190° (S) 3,221 6.8 -7.8°
Reaches altitude 10° 00:10:25 10° 199° (SSW) 2,300 6.2 -8.1°
Maximum altitude 00:15:02 35° 265° (W) 1,224 4.8 -8.8°
Drops below altitude 10° 00:19:42 10° 331° (NNW) 2,316 5.6 -9.4°
Sets 00:22:13 0° 340° (NNW) 3,248 6.2 -9.8°
